This demonstration page uses our WeatherBlox Daily Observations layout. Learn more.

Left ArrowRight Arrow

39.08367, -84.50855

Hourly Observations for December 15, 2020

Temp ( °F °C ) Dew Point ( °F °C ) Humidity (%) Winds ( mph kmh ) Pressure ( in mb ) Visibility ( mi km ) Precip ( " mm )
12:53 am 00:53 Clear 25 -3.9 21 -6.1 85 85 N N/A 30.35 1028 10 16 N/A
1:53 am 01:53 Clear 26 -3.3 23 -5 88 88 N N/A 30.36 1028 10 16 N/A
2:53 am 02:53 Clear 24 -4.4 21 -6.1 88 88 N N/A 30.37 1029 10 16 N/A
3:53 am 03:53 Clear 25 -3.9 22 -5.6 88 88 N 3 6 30.35 1028 8 13 N/A
4:53 am 04:53 Clear with Mist and Fog 23 -5 21 -6.1 92 92 N N/A 30.35 1028 6 10 N/A
5:53 am 05:53 Clear 24 -4.4 22 -5.6 91 91 NNE 3 6 30.35 1028 7 11 N/A
6:53 am 06:53 Clear 23 -5 20 -6.7 88 88 NNE 5 7 30.37 1028 9 14 N/A
7:53 am 07:53 Sunny 23 -5 19 -7.2 85 85 N N/A 30.39 1029 9 14 N/A
8:53 am 08:53 Sunny 25 -3.9 22 -5.6 88 88 N N/A 30.41 1030 9 14 N/A
9:53 am 09:53 Sunny 30 -1.1 21 -6.1 69 69 NNE 5 7 30.42 1030 10 16 N/A
10:53 am 10:53 Sunny 33 0.6 21 -6.1 61 61 NE 6 9 30.42 1030 10 16 N/A
11:53 am 11:53 Sunny 35 1.7 20 -6.7 54 54 NE 8 13 30.38 1029 10 16 N/A
12:53 pm 12:53 Sunny 36 2.2 20 -6.7 52 52 E 9 15 30.33 1027 10 16 N/A
1:53 pm 13:53 Sunny 37 2.8 20 -6.7 50 50 E 10 17 30.29 1026 10 16 N/A
2:53 pm 14:53 Sunny 38 3.3 21 -6.1 51 51 E 10 17 30.26 1025 10 16 N/A
3:53 pm 15:53 Sunny 37 2.8 21 -6.1 52 52 ENE 9 15 30.23 1024 10 16 N/A
4:53 pm 16:53 Sunny 35 1.7 21 -6.1 57 57 NE 9 15 30.22 1023 10 16 N/A
5:53 pm 17:53 Clear 33 0.6 21 -6.1 61 61 NE 7 11 30.22 1023 10 16 N/A
6:53 pm 18:53 Clear 32 undefined 21 -6.1 64 64 NE 6 9 30.22 1023 10 16 N/A
7:53 pm 19:53 Clear 32 undefined 21 -6.1 64 64 ENE 7 11 30.20 1023 10 16 N/A
8:53 pm 20:53 Clear 31 -0.6 20 -6.7 64 64 NE 6 9 30.18 1022 10 16 N/A
9:53 pm 21:53 Partly Cloudy 29 -1.7 20 -6.7 69 69 NE 5 7 30.15 1021 10 16 N/A
10:53 pm 22:53 Cloudy 32 undefined 20 -6.7 61 61 NE 6 9 30.16 1021 10 16 N/A
11:53 pm 23:53 Mostly Cloudy 31 -0.6 21 -6.1 67 67 ENE 5 7 30.13 1020 10 16 N/A

Powered by AerisWeather